Simultaneous Nadir Overpasses (SNOs) Predictions

Prediction of SNOs between LANDSAT-8 and METOP-B Satellite Orbit:

Table of predicted SNOs for the next 14.0 days since TLE Epoch: 2/12/2022
Index Date (LANDSAT-8) Time (LANDSAT-8) Lat,Lon (LANDSAT-8) SZA (LANDSAT-8 ) Date (METOP-B) Time (METOP-B) Lat,Lon (METOP-B) SZA (METOP-B ) Distance(km) Time Diff (sec)
1 02/14/2022 12:34:19 81.15, 31.44 95.72 02/14/2022 12:33:53 81.14, 31.25 95.69 3.18 26
2 02/14/2022 13:23:45 -81.16,-160.65 84.26 02/14/2022 13:24:32 -81.17,-160.57 84.23 1.53 47
3 02/17/2022 08:08:32 81.16, 98.15 94.79 02/17/2022 08:08:13 81.16, 98.32 94.80 2.92 19
4 02/17/2022 08:57:58 -81.18, -93.91 85.19 02/17/2022 08:58:53 -81.18, -93.85 85.16 1.05 55
5 02/20/2022 03:42:45 81.15, 164.40 93.77 02/20/2022 03:42:35 81.15, 164.22 93.75 3.21 10
6 02/20/2022 04:32:11 -81.17, -27.63 86.20 02/20/2022 04:33:14 -81.18, -27.54 86.16 1.57 63
7 02/22/2022 22:28:24 -79.54, 46.94 89.92 02/22/2022 22:27:11 -79.96, 44.85 89.67 61.57 73
8 02/22/2022 23:16:58 81.16,-129.07 92.77 02/22/2022 23:16:56 81.15,-129.17 92.76 1.61 2
9 02/23/2022 00:06:24 -81.18, 38.92 87.19 02/23/2022 00:07:35 -81.18, 39.10 87.15 3.13 71
10 02/25/2022 18:01:46 -81.13, 129.35 88.30 02/25/2022 18:00:39 -81.13, 129.32 88.33 0.66 67



Historial Predications of SNOs between LANDSAT-8 and METOP-B
